Torna al catalogo

DELTA 1 DEB

AttivoSSO
NORAD 9042·DEBRIS·🇺🇸 United States

Lanciato Jan 22, 1975 da Vandenberg Space Force Base

Loading…

Prossimi Passaggi (prossime 24 ore)

TLE

AggiornatoSource: Space-Track

Epoca: Sep 14, 2026, 07:08 UTC

1 09042U 75004DG  26257.29785418  .00000156  00000-0  58727-4 0  9992
2 09042  97.9909 199.8332 0061689 148.8336 211.6537 14.41870564652499

Traccia DELTA 1 DEB in tempo reale con AllMySat

Download on the App Store